Tracking 31027 objects as of 19-Jul-2025
HD Live streaming from Space Station
objects crossing your sky now

COSMOS 970 DEB

Track COSMOS 970 DEB now!
10-day predictions


NORAD ID: 15559
Int'l Code: 1977-121BM
Perigee: 932.6 km
Apogee: 1,115.5 km
Inclination: 65.6 °
Period: 105.5 minutes
Semi major axis: 7395 km
RCS: 0.0103 m2 (small)
Launch date: December 21, 1977
Source: Commonwealth of Independent States (former USSR) (CIS)
Launch site: TYURATAM MISSILE AND SPACE COMPLEX (TTMTR)

Note: This is SATELLITE DEBRIS
Your satellite tracking list
TITAN 3C TRANSTAGE DEB
Track 1 satellite(s)




NASA's NSSDC Master Catalog

Two Line Element Set (TLE):
1 15559U 77121BM  25199.63389353  .00000075  00000-0  18154-3 0  9993
2 15559  65.5808 321.3491 0123645 177.7444 207.0645 13.65191064 15216
Source of the keplerian elements: AFSPC